Regional Weather Roundup
Issued by NWS

Home | Current Version | Previous Version | Graphics & Text | Print | Product List | Glossary On
Versions: 1 2 3 4 5 6 7 8 9 10 11 12 13 14 15 16 17 18 19 20 21 22 23 24 25 26 27 28 29 30 31 32 33 34 35 36 37 38 39 40 41 42 43 44 45 46 47 48 49 50
386
ASUS43 KLOT 222008
RWRIL

ILLINOIS REGIONAL WEATHER ROUNDUP
NATIONAL WEATHER SERVICE CHICAGO/ROMEOVILLE IL
300 PM CDT MON MAY 22 2017

NOTE: "FAIR" INDICATES FEW OR NO CLOUDS BELOW 12,000 FEET WITH NO
SIGNIFICANT WEATHER AND/OR OBSTRUCTIONS TO VISIBILITY.

* THESE STATIONS ARE NOT UNDER NWS QUALITY CONTROL. THEY ALSO MAY NOT
  REPORT WEATHER SUCH AS PRECIPITATION OR FOG.

ILZ001-002-007-009-015-016-024-222100-
NORTHWEST ILLINOIS

CITY           SKY/WX    TMP DP  RH WIND       PRES   REMARKS
MOLINE         PTSUNNY   70  55  59 SW21G30   29.91F
STERLING*      CLOUDY    69  52  54 W22G29    29.91F
SAVANNA*       CLOUDY    69  56  63 S12       29.89F
$$

ILZ003-004-008-010-011-017-018-222100-
NORTH CENTRAL ILLINOIS

CITY           SKY/WX    TMP DP  RH WIND       PRES   REMARKS
ROCKFORD       CLOUDY    68  49  50 SW8       29.91F
FREEPORT*      PTSUNNY   67  53  59 S15       29.91F
ROCHELLE*      CLOUDY    69  49  49 SW18      29.92F
DE KALB*       CLOUDY    69  47  46 SW17      29.92F
PERU*          MOSUNNY   72  46  39 SW20G26   29.94F
$$

ILZ005-006-012>014-019>023-222100-
NORTHEAST ILLINOIS

CITY           SKY/WX    TMP DP  RH WIND       PRES   REMARKS
CHICAGO-OHARE  MOSUNNY   72  45  37 W14G24    29.93F
CHICAGO-MIDWAY MOSUNNY   74  46  36 SW17      29.93F
AURORA         CLOUDY    73  46  38 S15G24    29.94F
LANSING*       SUNNY     73  48  41 W13G24    29.95F
WAUKEGAN       CLOUDY    67  49  52 VRB3      29.91F
DUPAGE AIRPORT PTSUNNY   70  48  45 SW14G26   29.93F
KANKAKEE*      MOSUNNY   76  45  33 S12G22    29.97F
WHEELING       MOSUNNY   71  47  42 SW17G24   29.93F
MORRIS*        SUNNY     73  43  33 SW18G26   29.94S
ROMEOVILLE*    SUNNY     73  50  43 SW18G28   29.94F
NORTHERLY ISL    N/A     72  40  31 SW13        N/A
$$

LMZ740>746-222100-
SOUTHERN LAKE MICHIGAN

STATION/POSITION SKY/WX   TEMP    WIND        PRES    VSBY  WAVE
                          AIR SEA DIR/SP/G                  HT/PER
                          (F)     (DEG/KT/KT) (MB)    (MI)  (FT/S)
SOUTHERN BUOY              49 45  170/ 12/ 14 1014.5          1/ 3
WILMETTE HARBOR            65 54                N/A           1/ 2
HARRISON CRIB              69     210/ 20/ 23   N/A
BURNHAM HARBOR             71     250/  9/ 18   N/A
CALUMET HARBOR             72     230/  8/ 16 1013.4F
BURNS HARBOR               69     210/ 17/ 21 1014.9F
MICHIGAN CITY              65     210/ 12/ 14   N/A
MICHIGAN CITY 6N           62 54  220/  8/ 10   N/A           1/ 3
ST. JOSEPH                 59 55  230/  6/  8 1015.2          1/ 3
$$

ILZ025>027-034>036-040-047-049-050-058-095>099-222100-
WEST-CENTRAL ILLINOIS

CITY           SKY/WX    TMP DP  RH WIND       PRES   REMARKS
QUINCY         CLOUDY    68  53  58 S7        29.98F
GALESBURG*     CLOUDY    65  56  74 SW12        N/A
MACOMB*        LGT RAIN  64  55  71 SW14G21   30.00S
JACKSONVILLE*  PTSUNNY   72  49  42 SW14      29.99F
PITTSFIELD*    CLOUDY    72  53  52 SW12      30.01S
$$

ILZ028>032-037-038-041>044-048-051>054-059>061-222100-
CENTRAL ILLINOIS

CITY           SKY/WX    TMP DP  RH WIND       PRES   REMARKS
PONTIAC        SUNNY     76  44  31 SW21G30   29.97F
BLOOMINGTON    SUNNY     72  44  36 SW21G26   29.99F
DECATUR        SUNNY     72  46  39 SW15G22   30.02F
PEORIA         CLOUDY    71  49  45 SW16      29.96F
LACON*         CLOUDY    71  49  45 SW9       29.95S
LINCOLN*       MOSUNNY   74  51  43 S6G17     29.99F
SPRINGFIELD    SUNNY     75  51  43 S13       30.00F
TAYLORVILLE    SUNNY     72  51  48 S9G20     30.02F
$$

ILZ033-039-045-046-055>057-062-063-222100-
EAST-CENTRAL ILLINOIS

CITY           SKY/WX    TMP DP  RH WIND       PRES   REMARKS
CHAMPAIGN      SUNNY     73  47  39 SW16      30.02F
RANTOUL*       SUNNY     74  49  41 SW15      30.01S
MATTOON        SUNNY     70  47  43 S13       30.03F
PARIS*         SUNNY     71  51  49 SW12G17   30.05S
$$

ILZ079-100>102-222100-
SOUTHWEST ILLINOIS

CITY           SKY/WX    TMP DP  RH WIND       PRES   REMARKS
ALTON          MOSUNNY   73  45  35 S12       30.07R
BELLEVILLE     MOSUNNY   74  46  35 S7        30.04F
CAHOKIA*       SUNNY     76  41  28 S10       30.03F
SPARTA*        SUNNY     72  47  41 S5        30.05F
$$

ILZ064>066-069>071-074>076-080>082-084>086-088>090-092>094-222100-
SOUTH-CENTRAL ILLINOIS

CITY           SKY/WX    TMP DP  RH WIND       PRES   REMARKS
CARBONDALE     SUNNY     75  51  43 S8        30.04F
CAIRO*         SUNNY     74  51  44 CALM      30.05F
EFFINGHAM*     SUNNY     73  46  39 S10       30.06F
MARION         MOSUNNY   75  50  41 S7        30.05F
MT. VERNON       N/A     74  47  38 SE7       30.05F
CENTRALIA*     SUNNY     73  49  43 S3        30.04F
SALEM*         SUNNY     73  45  36 S8        30.05F
METROPOLIS*    SUNNY     73  48  40 SE3       30.06F
$$

ILZ067-068-072-073-078-083-087-091-222100-
SOUTHEAST ILLINOIS

CITY           SKY/WX    TMP DP  RH WIND       PRES   REMARKS
LAWRENCEVILLE  SUNNY     73  46  38 SE9       30.05F
FLORA*         SUNNY     73  48  41 S3        30.05F
FAIRFIELD*     SUNNY     72  47  40 S6        30.04F
HARRISBURG*    SUNNY     74  48  39 S5        30.05F
ROBINSON*      SUNNY     72  44  36 SE7       30.06F
CARMI*         SUNNY     73  46  37 SE6G16    30.05F
$$

ABBREVIATIONS USED IN REMARKS
   TC - TEMPERATURE IN CELSIUS
  WCI - WIND CHILL INDEX
   HX - HEAT INDEX
  VSB - VISIBILITY
$$





USA.gov is the U.S. government's official web portal to all federal, state and local government web resources and services.